GW3650 Weather Reports


time (UTC)temp
C
wind
direction
speed
KPH
gust
KPH
rain 1hr
cm
rain 24hr
cm
rain mn
cm
humidity
%
barometer
mb
20260505003018 9 225 3.2 11.3 0.00 0.00 0.00 92 1028.6
20260505000018 8 203 3.2 11.3 0.00 0.00 0.00 92 1028.3
20260504233058 6 0.0 1.6 0.00 0.00 0.00 92 1027.9
20260504230017 7 0 1.6 4.8 0.00 0.00 0.00 91 1027.7
20260504223018 7 0 3.2 8.0 0.00 0.00 0.00 91 1027.7
20260504220017 7 0 3.2 8.0 0.00 0.00 0.00 91 1027.7
20260504213017 8 0 3.2 8.0 0.00 0.00 0.00 91 1027.7
20260504210018 7 0 1.6 4.8 0.00 0.00 0.00 91 1027.8
20260504203017 7 0 1.6 4.8 0.00 0.00 0.00 89 1027.8
20260504200038 7 0 1.6 6.4 0.00 0.00 0.00 89 1027.4
20260504193037 8 0 1.6 8.0 0.00 0.00 0.00 90 1027.5
20260504190017 8 0.0 1.6 0.00 0.00 0.00 90 1027.5
20260504183017 7 0.0 0.0 0.00 0.00 0.00 88 1027.7
20260504180037 8 0.0 0.0 0.00 0.00 0.00 88 1027.6
20260504173016 7 0.0 0.0 0.00 0.00 0.00 88 1027.9
20260504050019 17 113 11.3 20.9 0.00 0.00 0.00 68 1027.9
20260504043039 16 113 12.9 24.1 0.00 0.00 0.00 70 1028.3
20260504040018 16 113 12.9 25.7 0.00 0.00 0.00 74 1028.8
20260504033017 16 113 12.9 24.1 0.00 0.00 0.00 75 1029.3
20260504030018 15 113 16.1 29.0 0.00 0.00 0.00 77 1029.2
20260504023018 15 113 16.1 27.4 0.00 0.00 0.00 79 1029.4
20260504020038 14 113 20.9 27.4 0.00 0.00 0.00 81 1029.9
20260504013017 13 113 14.5 27.4 0.00 0.00 0.00 89 1029.8
20260504010018 11 158 3.2 12.9 0.00 0.00 0.00 93 1029.7